GPS BIII-3 (PRN 23)

Last updated on Wed Jun 24 2026 00:03:27 GMT+0000 (Coordinated Universal Time)

1 45854U 20041A 26173.71775760 -.00000098 00000+0 00000+0 0 9998 2 45854 56.6735 28.7279 0064233 204.6080 154.4402 2.00558666 44144
UTC large
Height (km)
Speed (km/s)
/
Latitude / Longitude
Inclination (degrees)
Orbital Period (minutes)
Azimuth
Elevation
Range (km)
Doppler Factor

Next 0 passes for location: London (51.5072 / 0.1276)

No passes found over London.
GPS BIII-3 (PRN 23)